This demonstration page uses our WeatherBlox Daily Observations layout. Learn more.

Left ArrowRight Arrow

Hourly Observations for October 8, 2016

Temp ( °F °C ) Dew Point ( °F °C ) Humidity (%) Winds ( mph kmh ) Pressure ( in mb ) Visibility ( mi km ) Precip ( " mm )
12:51 am 00:51 Clear 69 20.6 45 7.2 42 42 SE 9 15 29.95 1014 10 16 0.00 0.00
1:51 am 01:51 Clear 69 20.6 47 8.3 45 45 ESE 12 19 29.95 1014 10 16 0.00 0.00
2:51 am 02:51 Mostly Clear 67 19.4 47 8.3 49 49 E 9 15 29.96 1015 10 16 0.00 0.00
3:51 am 03:51 Partly Cloudy 67 19.4 48 8.9 51 51 E 8 13 29.97 1015 10 16 0.00 0.00
4:51 am 04:51 Partly Cloudy 68 20 50 10 53 53 ESE 13 20 29.98 1015 10 16 0.00 0.00
5:51 am 05:51 Cloudy 69 20.6 51 10.6 53 53 ESE 15 24 30.00 1016 10 16 0.00 0.00
6:51 am 06:51 Cloudy 68 20 51 10.6 55 55 ESE 14 22 30.02 1017 10 16 0.00 0.00
7:51 am 07:51 Sunny 70 21.1 52 11.1 53 53 SE 15 24 30.03 1017 10 16 0.00 0.00
8:51 am 08:51 Mostly Sunny 73 22.8 53 11.7 50 50 SE 12 19 30.04 1017 10 16 0.00 0.00
9:51 am 09:51 Cloudy 75 23.9 52 11.1 45 45 E 14 22 30.03 1017 10 16 0.00 0.00
10:51 am 10:51 Cloudy 77 25 52 11.1 42 42 SSE 16 26 30.00 1016 10 16 0.00 0.00
11:51 am 11:51 Mostly Cloudy 78 25.6 53 11.7 42 42 S 13 20 29.97 1015 10 16 0.00 0.00
12:51 pm 12:51 Partly Cloudy 81 27.2 53 11.7 38 38 SSE 12 19 29.93 1014 10 16 0.00 0.00
1:51 pm 13:51 Mostly Sunny 83 28.3 53 11.7 36 36 SE 15 24 29.90 1012 10 16 0.00 0.00
2:51 pm 14:51 Partly Cloudy 83 28.3 53 11.7 36 36 SE 9 15 29.89 1012 10 16 0.00 0.00
3:51 pm 15:51 Partly Cloudy 84 28.9 53 11.7 34 34 SE 10 17 29.87 1012 10 16 0.00 0.00
4:51 pm 16:51 Sunny 83 28.3 53 11.7 36 36 ESE 13 20 29.86 1011 10 16 0.00 0.00
5:51 pm 17:51 Sunny 80 26.7 54 12.2 41 41 E 10 17 29.86 1011 10 16 0.00 0.00
6:51 pm 18:51 Mostly Cloudy 80 26.7 54 12.2 41 41 E 12 19 29.90 1013 10 16 0.00 0.00
7:41 pm 19:41 Clear with Thunderstorms 77 25 54 12.2 45 45 E 15 24 29.83 1010 10 16 0.00 0.00
7:51 pm 19:51 Clear with Nearby Thunderstorms 77 25 54 12.2 45 45 E 13 20 29.89 1012 10 16 0.00 0.00
8:04 pm 20:04 Mostly Clear with Thunderstorms 77 25 54 12.2 45 45 E 13 20 29.83 1010 10 16 0.00 0.00
8:41 pm 20:41 Cloudy with Strong Thunderstorms 65 18.3 60 15.6 84 84 ESE 21 33 30.00 1016 2 3 0.11 2.79
8:49 pm 20:49 Cloudy with Strong Thunderstorms 61 16 57 14 88 88 VRB 6 9 30.03 1017 1 1 0.00 0.00
8:50 pm 20:50 Cloudy with Strong Thunderstorms 59 15 57 13.9 93 93 VRB 6 9 30.01 1016 1 1 0.79 20.07
9:00 pm 21:00 Cloudy with Thunderstorms 60 15.6 58 14.4 93 93 undefined N/A 30.00 1016 2 3 0.23 5.84
9:07 pm 21:07 Cloudy with Thunderstorms 61 16.1 59 15 93 93 ENE 18 30 30.00 1016 5 8 0.26 6.60
9:24 pm 21:24 Mostly Cloudy with Nearby Thunderstorms 64 17.8 59 15 84 84 E 12 19 30.03 1017 10 16 0.27 6.86
9:51 pm 21:51 Cloudy with Nearby Thunderstorms 64 17.8 60 15.6 87 87 NNE 8 13 29.98 1015 10 16 0.36 9.14
10:01 pm 22:01 Cloudy with Light Rain 64 17.8 60 15.6 87 87 VRB 3 6 29.97 1015 7 11 0.02 0.51
10:09 pm 22:09 Cloudy with Thunderstorms 65 18.3 60 15.6 84 84 SSE 8 13 30.00 1016 7 11 0.04 1.02
10:28 pm 22:28 Cloudy with Nearby Thunderstorms 64 17.8 60 15.6 87 87 SSW 9 15 30.03 1017 10 16 0.06 1.52
10:40 pm 22:40 Cloudy with Thunderstorms 64 17.8 61 16.1 90 90 WSW 8 13 30.03 1017 9 14 0.08 2.03
10:51 pm 22:51 Cloudy with Thunderstorms 64 17.8 61 16.1 90 90 Calm 30.00 1016 8 13 0.09 2.29
11:51 pm 23:51 Mostly Cloudy with Thunderstorms 64 17.8 59 15 84 84 SE 21 33 30.01 1016 4 6 0.24 6.10

Powered by AerisWeather